Year,Month,Day,Hour,Minute,Value (Times are PST for temperature in C)
2009,07,30,00,00,15.80
2009,07,30,00,01,15.80
2009,07,30,00,02,15.80
2009,07,30,00,03,15.90
2009,07,30,00,04,15.90
2009,07,30,00,05,16.00
2009,07,30,00,06,16.10
2009,07,30,00,07,16.20
2009,07,30,00,08,16.20
2009,07,30,00,09,16.30
2009,07,30,00,10,16.40
2009,07,30,00,11,16.40
2009,07,30,00,12,16.50
2009,07,30,00,13,16.60
2009,07,30,00,14,16.70
2009,07,30,00,15,16.70
2009,07,30,00,16,16.80
2009,07,30,00,17,16.80
2009,07,30,00,18,16.90
2009,07,30,00,19,16.90
2009,07,30,00,20,17.00
2009,07,30,00,21,17.00
2009,07,30,00,22,17.10
2009,07,30,00,23,17.10
2009,07,30,00,24,17.20
2009,07,30,00,25,17.30
2009,07,30,00,26,17.30
2009,07,30,00,27,17.40
2009,07,30,00,28,17.50
2009,07,30,00,29,17.60
2009,07,30,00,30,17.80
2009,07,30,00,31,17.90
2009,07,30,00,32,18.00
2009,07,30,00,33,18.10
2009,07,30,00,34,18.20
2009,07,30,00,35,18.30
2009,07,30,00,36,18.40
2009,07,30,00,37,18.50
2009,07,30,00,38,18.50
2009,07,30,00,39,18.60
2009,07,30,00,40,18.60
2009,07,30,00,41,18.60
2009,07,30,00,42,18.60
2009,07,30,00,43,18.70
2009,07,30,00,44,18.70
2009,07,30,00,45,18.80
2009,07,30,00,46,18.80
2009,07,30,00,47,18.80
2009,07,30,00,48,18.90
2009,07,30,00,49,18.90
2009,07,30,00,50,18.90
2009,07,30,00,51,18.90
2009,07,30,00,52,18.90
2009,07,30,00,53,19.10
2009,07,30,00,54,19.10
2009,07,30,00,55,19.10
2009,07,30,00,56,19.10
2009,07,30,00,57,19.10
2009,07,30,00,58,19.20
2009,07,30,00,59,19.20
2009,07,30,01,00,19.20
2009,07,30,01,01,19.30
2009,07,30,01,02,19.30
2009,07,30,01,03,19.30
2009,07,30,01,04,19.30
2009,07,30,01,05,19.30
2009,07,30,01,06,19.30
2009,07,30,01,07,19.30
2009,07,30,01,08,19.30
2009,07,30,01,09,19.30
2009,07,30,01,10,19.20
2009,07,30,01,11,19.20
2009,07,30,01,12,19.10
2009,07,30,01,13,19.10
2009,07,30,01,14,19.10
2009,07,30,01,15,19.10
2009,07,30,01,16,19.10
2009,07,30,01,17,19.20
2009,07,30,01,18,19.20
2009,07,30,01,19,19.30
2009,07,30,01,20,19.30
2009,07,30,01,21,19.40
2009,07,30,01,22,19.50
2009,07,30,01,23,19.60
2009,07,30,01,24,19.60
2009,07,30,01,25,19.70
2009,07,30,01,26,19.80
2009,07,30,01,27,19.80
2009,07,30,01,28,19.90
2009,07,30,01,29,19.90
2009,07,30,01,30,20.00
2009,07,30,01,31,20.10
2009,07,30,01,32,20.10
2009,07,30,01,33,20.10
2009,07,30,01,34,20.00
2009,07,30,01,35,19.90
2009,07,30,01,36,19.90
2009,07,30,01,37,19.90
2009,07,30,01,38,19.90
2009,07,30,01,39,19.90
2009,07,30,01,40,19.90
2009,07,30,01,41,19.90
2009,07,30,01,42,19.90
2009,07,30,01,43,19.90
2009,07,30,01,44,19.90
2009,07,30,01,45,19.90
2009,07,30,01,46,19.80
2009,07,30,01,47,19.80
2009,07,30,01,48,19.80
2009,07,30,01,49,19.80
2009,07,30,01,50,19.80
2009,07,30,01,51,19.80
2009,07,30,01,52,19.80
2009,07,30,01,53,19.80
2009,07,30,01,54,19.80
2009,07,30,01,55,19.70
2009,07,30,01,56,19.60
2009,07,30,01,57,19.50
2009,07,30,01,58,19.40
2009,07,30,01,59,19.30
2009,07,30,02,00,19.30
2009,07,30,02,01,19.20
2009,07,30,02,02,19.10
2009,07,30,02,03,19.10
2009,07,30,02,04,19.10
2009,07,30,02,05,19.10
2009,07,30,02,06,18.90
2009,07,30,02,07,18.90
2009,07,30,02,08,18.90
2009,07,30,02,09,18.90
2009,07,30,02,10,18.90
2009,07,30,02,11,18.90
2009,07,30,02,12,18.90
2009,07,30,02,13,18.90
2009,07,30,02,14,18.90
2009,07,30,02,15,18.90
2009,07,30,02,16,18.80
2009,07,30,02,17,18.80
2009,07,30,02,18,18.70
2009,07,30,02,19,18.70
2009,07,30,02,20,18.60
2009,07,30,02,21,18.50
2009,07,30,02,22,18.50
2009,07,30,02,23,18.40
2009,07,30,02,24,18.40
2009,07,30,02,25,18.30
2009,07,30,02,26,18.30
2009,07,30,02,27,18.30
2009,07,30,02,28,18.20
2009,07,30,02,29,18.20
2009,07,30,02,30,18.20
2009,07,30,02,31,18.10
2009,07,30,02,32,18.00
2009,07,30,02,33,17.90
2009,07,30,02,34,17.90
2009,07,30,02,35,17.80
2009,07,30,02,36,17.70
2009,07,30,02,37,17.60
2009,07,30,02,38,17.50
2009,07,30,02,39,17.40
2009,07,30,02,40,17.30
2009,07,30,02,41,17.30
2009,07,30,02,42,17.30
2009,07,30,02,43,17.30
2009,07,30,02,44,17.30
2009,07,30,02,45,17.30
2009,07,30,02,46,17.30
2009,07,30,02,47,17.30
2009,07,30,02,48,17.30
2009,07,30,02,49,17.30
2009,07,30,02,50,17.40
2009,07,30,02,51,17.40
2009,07,30,02,52,17.40
2009,07,30,02,53,17.40
2009,07,30,02,54,17.40
2009,07,30,02,55,17.40
2009,07,30,02,56,17.40
2009,07,30,02,57,17.40
2009,07,30,02,58,17.30
2009,07,30,02,59,17.30
2009,07,30,03,00,17.20
2009,07,30,03,01,17.10
2009,07,30,03,02,17.10
2009,07,30,03,03,17.00
2009,07,30,03,04,17.00
2009,07,30,03,05,17.00
2009,07,30,03,06,17.00
2009,07,30,03,07,16.90
2009,07,30,03,08,16.90
2009,07,30,03,09,16.90
2009,07,30,03,10,16.90
2009,07,30,03,11,16.90
2009,07,30,03,12,16.80
2009,07,30,03,13,16.80
2009,07,30,03,14,16.80
2009,07,30,03,15,16.80
2009,07,30,03,16,16.90
2009,07,30,03,17,16.90
2009,07,30,03,18,16.90
2009,07,30,03,19,16.90
2009,07,30,03,20,17.00
2009,07,30,03,21,17.00
2009,07,30,03,22,17.00
2009,07,30,03,23,17.10
2009,07,30,03,24,17.20
2009,07,30,03,25,17.20
2009,07,30,03,26,17.30
2009,07,30,03,27,17.30
2009,07,30,03,28,17.30
2009,07,30,03,29,17.30
2009,07,30,03,30,17.30
2009,07,30,03,31,17.30
2009,07,30,03,32,17.30
2009,07,30,03,33,17.30
2009,07,30,03,34,17.40
2009,07,30,03,35,17.40
2009,07,30,03,36,17.40
2009,07,30,03,37,17.30
2009,07,30,03,38,17.30
2009,07,30,03,39,17.20
2009,07,30,03,40,17.10
2009,07,30,03,41,17.00
2009,07,30,03,42,16.90
2009,07,30,03,43,16.80
2009,07,30,03,44,16.80
2009,07,30,03,45,16.70
2009,07,30,03,46,16.70
2009,07,30,03,47,16.70
2009,07,30,03,48,16.70
2009,07,30,03,49,16.70
2009,07,30,03,50,16.60
2009,07,30,03,51,16.50
2009,07,30,03,52,16.40
2009,07,30,03,53,16.40
2009,07,30,03,54,16.40
2009,07,30,03,55,16.40
2009,07,30,03,56,16.40
2009,07,30,03,57,16.40
2009,07,30,03,58,16.40
2009,07,30,03,59,16.40
2009,07,30,04,00,16.40
2009,07,30,04,01,16.40
2009,07,30,04,02,16.40
2009,07,30,04,03,16.40
2009,07,30,04,04,16.40
2009,07,30,04,05,16.30
2009,07,30,04,06,16.30
2009,07,30,04,07,16.20
2009,07,30,04,08,16.20
2009,07,30,04,09,16.20
2009,07,30,04,10,16.20
2009,07,30,04,11,16.20
2009,07,30,04,12,16.20
2009,07,30,04,13,16.20
2009,07,30,04,14,16.20
2009,07,30,04,15,16.20
2009,07,30,04,16,16.20
2009,07,30,04,17,16.20
2009,07,30,04,18,16.20
2009,07,30,04,19,16.20
2009,07,30,04,20,16.20
2009,07,30,04,21,16.20
2009,07,30,04,22,16.30
2009,07,30,04,23,16.30
2009,07,30,04,24,16.30
2009,07,30,04,25,16.30
2009,07,30,04,26,16.30
2009,07,30,04,27,16.30
2009,07,30,04,28,16.40
2009,07,30,04,29,16.40
2009,07,30,04,30,16.40
2009,07,30,04,31,16.40
2009,07,30,04,32,16.40
2009,07,30,04,33,16.40
2009,07,30,04,34,16.40
2009,07,30,04,35,16.40
2009,07,30,04,36,16.40
2009,07,30,04,37,16.50
2009,07,30,04,38,16.60
2009,07,30,04,39,16.60
2009,07,30,04,40,16.70
2009,07,30,04,41,16.70
2009,07,30,04,42,16.70
2009,07,30,04,43,16.70
2009,07,30,04,44,16.70
2009,07,30,04,45,16.80
2009,07,30,04,46,16.80
2009,07,30,04,47,16.80
2009,07,30,04,48,16.90
2009,07,30,04,49,16.90
2009,07,30,04,50,16.90
2009,07,30,04,51,16.90
2009,07,30,04,52,17.00
2009,07,30,04,53,17.00
2009,07,30,04,54,17.00
2009,07,30,04,55,17.10
2009,07,30,04,56,17.10
2009,07,30,04,57,17.20
2009,07,30,04,58,17.20
2009,07,30,04,59,17.20
2009,07,30,05,00,17.30
2009,07,30,05,01,17.30
2009,07,30,05,02,17.30
2009,07,30,05,03,17.30
2009,07,30,05,04,17.30
2009,07,30,05,05,17.40
2009,07,30,05,06,17.40
2009,07,30,05,07,17.50
2009,07,30,05,08,17.50
2009,07,30,05,09,17.50
2009,07,30,05,10,17.60
2009,07,30,05,11,17.60
2009,07,30,05,12,17.60
2009,07,30,05,13,17.60
2009,07,30,05,14,17.70
2009,07,30,05,15,17.70
2009,07,30,05,16,17.70
2009,07,30,05,17,17.70
2009,07,30,05,18,17.70
2009,07,30,05,19,17.70
2009,07,30,05,20,17.70
2009,07,30,05,21,17.60
2009,07,30,05,22,17.60
2009,07,30,05,23,17.50
2009,07,30,05,24,17.50
2009,07,30,05,25,17.40
2009,07,30,05,26,17.40
2009,07,30,05,27,17.40
2009,07,30,05,28,17.40
2009,07,30,05,29,17.40
2009,07,30,05,30,17.40
2009,07,30,05,31,17.40
2009,07,30,05,32,17.50
2009,07,30,05,33,17.50
2009,07,30,05,34,17.50
2009,07,30,05,35,17.50
2009,07,30,05,36,17.50
2009,07,30,05,37,17.60
2009,07,30,05,38,17.60
2009,07,30,05,39,17.70
2009,07,30,05,40,17.70
2009,07,30,05,41,17.70
2009,07,30,05,42,17.70
2009,07,30,05,43,17.80
2009,07,30,05,44,17.80
2009,07,30,05,45,17.80
2009,07,30,05,46,17.90
2009,07,30,05,47,17.90
2009,07,30,05,48,17.90
2009,07,30,05,49,17.90
2009,07,30,05,50,17.90
2009,07,30,05,51,17.90
2009,07,30,05,52,17.90
2009,07,30,05,53,17.90
2009,07,30,05,54,17.90
2009,07,30,05,55,17.90
2009,07,30,05,56,17.90
2009,07,30,05,57,17.90
2009,07,30,05,58,17.90
2009,07,30,05,59,17.90
2009,07,30,06,00,17.80
2009,07,30,06,01,17.70
2009,07,30,06,02,17.70
2009,07,30,06,03,17.70
2009,07,30,06,04,17.60
2009,07,30,06,05,17.50
2009,07,30,06,06,17.50
2009,07,30,06,07,17.40
2009,07,30,06,08,17.30
2009,07,30,06,09,17.20
2009,07,30,06,10,17.20
2009,07,30,06,11,17.20
2009,07,30,06,12,17.20
2009,07,30,06,13,17.20
2009,07,30,06,14,17.20
2009,07,30,06,15,17.10
2009,07,30,06,16,17.10
2009,07,30,06,17,17.10
2009,07,30,06,18,17.10
2009,07,30,06,19,17.20
2009,07,30,06,20,17.20
2009,07,30,06,21,17.30
2009,07,30,06,22,17.30
2009,07,30,06,23,17.40
2009,07,30,06,24,17.50
2009,07,30,06,25,17.50
2009,07,30,06,26,17.50
2009,07,30,06,27,17.50
2009,07,30,06,28,17.60
2009,07,30,06,29,17.70
2009,07,30,06,30,17.70
2009,07,30,06,31,17.60
2009,07,30,06,32,17.50
2009,07,30,06,33,17.40
2009,07,30,06,34,17.20
2009,07,30,06,35,17.10
2009,07,30,06,36,16.90
2009,07,30,06,37,16.80
2009,07,30,06,38,16.70
2009,07,30,06,39,16.70
2009,07,30,06,40,16.70
2009,07,30,06,41,16.70
2009,07,30,06,42,16.60
2009,07,30,06,43,16.50
2009,07,30,06,44,16.40
2009,07,30,06,45,16.30
2009,07,30,06,46,16.30
2009,07,30,06,47,16.20
2009,07,30,06,48,16.20
2009,07,30,06,49,16.20
2009,07,30,06,50,16.20
2009,07,30,06,51,16.20
2009,07,30,06,52,16.10
2009,07,30,06,53,16.10
2009,07,30,06,54,15.90
2009,07,30,06,55,15.80
2009,07,30,06,56,15.80
2009,07,30,06,57,15.70
2009,07,30,06,58,15.70
2009,07,30,06,59,15.60
2009,07,30,07,00,15.60
2009,07,30,07,01,15.60
2009,07,30,07,02,15.60
2009,07,30,07,03,15.50
2009,07,30,07,04,15.50
2009,07,30,07,05,15.50
2009,07,30,07,06,15.60
2009,07,30,07,07,15.60
2009,07,30,07,08,15.60
2009,07,30,07,09,15.60
2009,07,30,07,10,15.60
2009,07,30,07,11,15.60
2009,07,30,07,12,15.50
2009,07,30,07,13,15.50
2009,07,30,07,14,15.50
2009,07,30,07,15,15.50
2009,07,30,07,16,15.50
2009,07,30,07,17,15.50
2009,07,30,07,18,15.60
2009,07,30,07,19,15.60
2009,07,30,07,20,15.70
2009,07,30,07,21,15.80
2009,07,30,07,22,15.80
2009,07,30,07,23,15.80
2009,07,30,07,24,15.80
2009,07,30,07,25,15.80
2009,07,30,07,26,15.80
2009,07,30,07,27,15.80
2009,07,30,07,28,15.80
2009,07,30,07,29,15.80
2009,07,30,07,30,15.80
2009,07,30,07,31,15.80
2009,07,30,07,32,15.90
2009,07,30,07,33,15.90
2009,07,30,07,34,16.00
2009,07,30,07,35,16.10
2009,07,30,07,36,16.10
2009,07,30,07,37,16.10
2009,07,30,07,38,16.20
2009,07,30,07,39,16.20
2009,07,30,07,40,16.30
2009,07,30,07,41,16.40
2009,07,30,07,42,16.50
2009,07,30,07,43,16.60
2009,07,30,07,44,16.60
2009,07,30,07,45,16.60
2009,07,30,07,46,16.70
2009,07,30,07,47,16.70
2009,07,30,07,48,16.80
2009,07,30,07,49,16.90
2009,07,30,07,50,16.90
2009,07,30,07,51,17.00
2009,07,30,07,52,17.10
2009,07,30,07,53,17.10
2009,07,30,07,54,17.20
2009,07,30,07,55,17.30
2009,07,30,07,56,17.40
2009,07,30,07,57,17.50
2009,07,30,07,58,17.60
2009,07,30,07,59,17.70
2009,07,30,08,00,17.80
2009,07,30,08,01,17.90
2009,07,30,08,02,18.00
2009,07,30,08,03,18.10
2009,07,30,08,04,18.20
2009,07,30,08,05,18.20
2009,07,30,08,06,18.30
2009,07,30,08,07,18.40
2009,07,30,08,08,18.50
2009,07,30,08,09,18.50
2009,07,30,08,10,18.60
2009,07,30,08,11,18.60
2009,07,30,08,12,18.70
2009,07,30,08,13,18.80
2009,07,30,08,14,18.90
2009,07,30,08,15,18.90
2009,07,30,08,16,19.00
2009,07,30,08,17,19.10
2009,07,30,08,18,19.10
2009,07,30,08,19,19.10
2009,07,30,08,20,19.10
2009,07,30,08,21,19.10
2009,07,30,08,22,19.10
2009,07,30,08,23,19.20
2009,07,30,08,24,19.30
2009,07,30,08,25,19.30
2009,07,30,08,26,19.40
2009,07,30,08,27,19.50
2009,07,30,08,28,19.60
2009,07,30,08,29,19.70
2009,07,30,08,30,19.80
2009,07,30,08,31,19.80
2009,07,30,08,32,19.90
2009,07,30,08,33,19.90
2009,07,30,08,34,20.00
2009,07,30,08,35,20.10
2009,07,30,08,36,20.10
2009,07,30,08,37,20.20
2009,07,30,08,38,20.30
2009,07,30,08,39,20.30
2009,07,30,08,40,20.40
2009,07,30,08,41,20.40
2009,07,30,08,42,20.30
2009,07,30,08,43,20.20
2009,07,30,08,44,20.10
2009,07,30,08,45,20.10
2009,07,30,08,46,20.00
2009,07,30,08,47,19.90
2009,07,30,08,48,19.80
2009,07,30,08,49,19.80
2009,07,30,08,50,19.70
2009,07,30,08,51,19.60
2009,07,30,08,52,19.50
2009,07,30,08,53,19.40
2009,07,30,08,54,19.20
2009,07,30,08,55,19.20
2009,07,30,08,56,19.10
2009,07,30,08,57,19.10
2009,07,30,08,58,19.10
2009,07,30,08,59,19.10
2009,07,30,09,00,19.10
2009,07,30,09,01,19.20
2009,07,30,09,02,19.30
2009,07,30,09,03,19.30
2009,07,30,09,04,19.30
2009,07,30,09,05,19.30
2009,07,30,09,06,19.30
2009,07,30,09,07,19.40
2009,07,30,09,08,19.40
2009,07,30,09,09,19.50
2009,07,30,09,10,19.60
2009,07,30,09,11,19.60
2009,07,30,09,12,19.70
2009,07,30,09,13,19.80
2009,07,30,09,14,19.90
2009,07,30,09,15,19.80
2009,07,30,09,16,19.70
2009,07,30,09,17,19.60
2009,07,30,09,18,19.60
2009,07,30,09,19,19.50
2009,07,30,09,20,19.50
2009,07,30,09,21,19.60
2009,07,30,09,22,19.60
2009,07,30,09,23,19.60
2009,07,30,09,24,19.70
2009,07,30,09,25,19.60
2009,07,30,09,26,19.50
2009,07,30,09,27,19.40
2009,07,30,09,28,19.40
2009,07,30,09,29,19.40
2009,07,30,09,30,19.30
2009,07,30,09,31,19.30
2009,07,30,09,32,19.20
2009,07,30,09,33,19.10
2009,07,30,09,34,19.10
2009,07,30,09,35,19.10
2009,07,30,09,36,19.00
2009,07,30,09,37,18.90
2009,07,30,09,38,18.90
2009,07,30,09,39,18.90
2009,07,30,09,40,18.90
2009,07,30,09,41,19.10
2009,07,30,09,42,19.00
2009,07,30,09,43,18.90
2009,07,30,09,44,18.90
2009,07,30,09,45,18.90
2009,07,30,09,46,18.90
2009,07,30,09,47,18.90
2009,07,30,09,48,18.90
2009,07,30,09,49,18.90
2009,07,30,09,50,18.90
2009,07,30,09,51,18.90
2009,07,30,09,52,19.20
2009,07,30,09,53,19.40
2009,07,30,09,54,19.60
2009,07,30,09,55,19.60
2009,07,30,09,56,19.70
2009,07,30,09,57,19.80
2009,07,30,09,58,19.90
2009,07,30,09,59,20.00
2009,07,30,10,00,20.10
2009,07,30,10,01,20.20
2009,07,30,10,02,20.20
2009,07,30,10,03,20.20
2009,07,30,10,04,20.30
2009,07,30,10,05,20.20
2009,07,30,10,06,20.20
2009,07,30,10,07,20.20
2009,07,30,10,08,20.10
2009,07,30,10,09,20.10
2009,07,30,10,10,20.10
2009,07,30,10,11,20.10
2009,07,30,10,12,20.20
2009,07,30,10,13,20.20
2009,07,30,10,14,20.30
2009,07,30,10,15,20.30
2009,07,30,10,16,20.40
2009,07,30,10,17,20.50
2009,07,30,10,18,20.60
2009,07,30,10,19,20.80
2009,07,30,10,20,21.00
2009,07,30,10,21,21.00
2009,07,30,10,22,21.20
2009,07,30,10,23,21.30
2009,07,30,10,24,21.40
2009,07,30,10,25,21.30
2009,07,30,10,26,21.30
2009,07,30,10,27,21.30
2009,07,30,10,28,21.30
2009,07,30,10,29,21.30
2009,07,30,10,30,21.30
2009,07,30,10,31,21.30
2009,07,30,10,32,21.40
2009,07,30,10,33,21.30
2009,07,30,10,34,21.30
2009,07,30,10,35,21.30
2009,07,30,10,36,21.30
2009,07,30,10,37,21.10
2009,07,30,10,38,20.90
2009,07,30,10,39,20.50
2009,07,30,10,40,20.10
2009,07,30,10,41,19.70
2009,07,30,10,42,19.40
2009,07,30,10,43,19.20
2009,07,30,10,44,19.10
2009,07,30,10,45,18.90
2009,07,30,10,46,18.70
2009,07,30,10,47,18.70
2009,07,30,10,48,18.70
2009,07,30,10,49,18.60
2009,07,30,10,50,18.50
2009,07,30,10,51,18.50
2009,07,30,10,52,18.60
2009,07,30,10,53,18.60
2009,07,30,10,54,18.40
2009,07,30,10,55,18.40
2009,07,30,10,56,18.30
2009,07,30,10,57,18.20
2009,07,30,10,58,18.20
2009,07,30,10,59,18.20
2009,07,30,11,00,18.30
2009,07,30,11,01,18.30
2009,07,30,11,02,18.30
2009,07,30,11,03,18.30
2009,07,30,11,04,18.30
2009,07,30,11,05,18.30
2009,07,30,11,06,18.40
2009,07,30,11,07,18.40
2009,07,30,11,08,18.40
2009,07,30,11,09,18.50
2009,07,30,11,10,18.60
2009,07,30,11,11,18.80
2009,07,30,11,12,19.00
2009,07,30,11,13,19.10
2009,07,30,11,14,19.10
2009,07,30,11,15,19.20
2009,07,30,11,16,19.20
2009,07,30,11,17,19.30
2009,07,30,11,18,19.30
2009,07,30,11,19,19.40
2009,07,30,11,20,19.50
2009,07,30,11,21,19.60
2009,07,30,11,22,19.70
2009,07,30,11,23,19.80
2009,07,30,11,24,19.90
2009,07,30,11,25,19.90
2009,07,30,11,26,19.90
2009,07,30,11,27,20.00
2009,07,30,11,28,20.10
2009,07,30,11,29,20.20
2009,07,30,11,30,20.20
2009,07,30,11,31,20.30
2009,07,30,11,32,20.40
2009,07,30,11,33,20.50
2009,07,30,11,34,20.50
2009,07,30,11,35,20.50
2009,07,30,11,36,20.60
2009,07,30,11,37,20.70
2009,07,30,11,38,20.80
2009,07,30,11,39,20.80
2009,07,30,11,40,20.90
2009,07,30,11,41,20.90
2009,07,30,11,42,21.00
2009,07,30,11,43,21.10
2009,07,30,11,44,21.10
2009,07,30,11,45,21.20
2009,07,30,11,46,21.30
2009,07,30,11,47,21.30
2009,07,30,11,48,21.20
2009,07,30,11,49,21.10
2009,07,30,11,50,21.10
2009,07,30,11,51,21.20
2009,07,30,11,52,21.20
2009,07,30,11,53,21.20
2009,07,30,11,54,21.20
2009,07,30,11,55,21.20
2009,07,30,11,56,21.20
2009,07,30,11,57,21.20
2009,07,30,11,58,21.20
2009,07,30,11,59,21.30
2009,07,30,12,00,21.30
2009,07,30,12,01,21.30
2009,07,30,12,02,21.40
2009,07,30,12,03,21.40
2009,07,30,12,04,21.40
2009,07,30,12,05,21.50
2009,07,30,12,06,21.60
2009,07,30,12,07,21.60
2009,07,30,12,08,21.70
2009,07,30,12,09,21.70
2009,07,30,12,10,21.80
2009,07,30,12,11,21.80
2009,07,30,12,12,21.80
2009,07,30,12,13,21.90
2009,07,30,12,14,22.00
2009,07,30,12,15,22.10
2009,07,30,12,16,22.10
2009,07,30,12,17,22.10
2009,07,30,12,18,22.10
2009,07,30,12,19,22.20
2009,07,30,12,20,22.20
2009,07,30,12,21,22.20
2009,07,30,12,22,22.10
2009,07,30,12,23,22.10
2009,07,30,12,24,22.00
2009,07,30,12,25,22.00
2009,07,30,12,26,22.00
2009,07,30,12,27,22.20
2009,07,30,12,28,22.30
2009,07,30,12,29,22.30
2009,07,30,12,30,22.30
2009,07,30,12,31,22.40
2009,07,30,12,32,22.40
2009,07,30,12,33,22.50
2009,07,30,12,34,22.60
2009,07,30,12,35,22.60
2009,07,30,12,36,22.70
2009,07,30,12,37,22.70
2009,07,30,12,38,22.80
2009,07,30,12,39,22.90
2009,07,30,12,40,23.00
2009,07,30,12,41,23.20
2009,07,30,12,42,23.30
2009,07,30,12,43,23.60
2009,07,30,12,44,23.80
2009,07,30,12,45,23.90
2009,07,30,12,46,24.00
2009,07,30,12,47,24.10
2009,07,30,12,48,24.10
2009,07,30,12,49,24.10
2009,07,30,12,50,24.20
2009,07,30,12,51,24.30
2009,07,30,12,52,24.30
2009,07,30,12,53,24.40
2009,07,30,12,54,24.50
2009,07,30,12,55,24.60
2009,07,30,12,56,24.60
2009,07,30,12,57,24.50
2009,07,30,12,58,24.50
2009,07,30,12,59,24.50
2009,07,30,13,00,24.50
2009,07,30,13,01,24.60
2009,07,30,13,02,24.60
2009,07,30,13,03,24.50
2009,07,30,13,04,24.50
2009,07,30,13,05,24.50
2009,07,30,13,06,24.50
2009,07,30,13,07,24.50
2009,07,30,13,08,24.60
2009,07,30,13,09,24.60
2009,07,30,13,10,24.60
2009,07,30,13,11,24.60
2009,07,30,13,12,24.80
2009,07,30,13,13,24.90
2009,07,30,13,14,24.90
2009,07,30,13,15,25.00
2009,07,30,13,16,25.10
2009,07,30,13,17,25.20
2009,07,30,13,18,25.20
2009,07,30,13,19,25.30
2009,07,30,13,20,25.30
2009,07,30,13,21,25.30
2009,07,30,13,22,25.30
2009,07,30,13,23,25.30
2009,07,30,13,24,25.40
2009,07,30,13,25,25.40
2009,07,30,13,26,25.50
2009,07,30,13,27,25.50
2009,07,30,13,28,25.70
2009,07,30,13,29,25.80
2009,07,30,13,30,25.90
2009,07,30,13,31,26.00
2009,07,30,13,32,26.10
2009,07,30,13,33,26.20
2009,07,30,13,34,26.30
2009,07,30,13,35,26.40
2009,07,30,13,36,26.50
2009,07,30,13,37,26.60
2009,07,30,13,38,26.60
2009,07,30,13,39,26.40
2009,07,30,13,40,26.50
2009,07,30,13,41,26.60
2009,07,30,13,42,26.50
2009,07,30,13,43,26.40
2009,07,30,13,44,26.20
2009,07,30,13,45,26.10
2009,07,30,13,46,25.90
2009,07,30,13,47,25.90
2009,07,30,13,48,25.80
2009,07,30,13,49,25.80
2009,07,30,13,50,25.70
2009,07,30,13,51,25.60
2009,07,30,13,52,25.70
2009,07,30,13,53,25.70
2009,07,30,13,54,25.70
2009,07,30,13,55,25.70
2009,07,30,13,56,25.60
2009,07,30,13,57,25.70
2009,07,30,13,58,25.80
2009,07,30,13,59,25.90
2009,07,30,14,00,25.90
2009,07,30,14,01,26.00
2009,07,30,14,02,26.00
2009,07,30,14,03,26.00
2009,07,30,14,04,26.10
2009,07,30,14,05,26.10
2009,07,30,14,06,26.20
2009,07,30,14,07,26.20
2009,07,30,14,08,26.20
2009,07,30,14,09,26.20
2009,07,30,14,10,26.10
2009,07,30,14,11,26.10
2009,07,30,14,12,26.10
2009,07,30,14,13,26.00
2009,07,30,14,14,25.90
2009,07,30,14,15,25.90
2009,07,30,14,16,25.80
2009,07,30,14,17,25.80
2009,07,30,14,18,25.80
2009,07,30,14,19,25.90
2009,07,30,14,20,25.90
2009,07,30,14,21,26.10
2009,07,30,14,22,26.20
2009,07,30,14,23,26.30
2009,07,30,14,24,26.20
2009,07,30,14,25,26.30
2009,07,30,14,26,26.30
2009,07,30,14,27,26.40
2009,07,30,14,28,26.40
2009,07,30,14,29,26.30
2009,07,30,14,30,26.40
2009,07,30,14,31,26.40
2009,07,30,14,32,26.40
2009,07,30,14,33,26.50
2009,07,30,14,34,26.50
2009,07,30,14,35,26.60
2009,07,30,14,36,26.60
2009,07,30,14,37,26.60
2009,07,30,14,38,26.70
2009,07,30,14,39,26.80
2009,07,30,14,40,26.80
2009,07,30,14,41,26.90
2009,07,30,14,42,26.90
2009,07,30,14,43,26.90
2009,07,30,14,44,26.90
2009,07,30,14,45,26.90
2009,07,30,14,46,27.10
2009,07,30,14,47,27.10
2009,07,30,14,48,27.00
2009,07,30,14,49,26.90
2009,07,30,14,50,27.10
2009,07,30,14,51,27.10
2009,07,30,14,52,27.00
2009,07,30,14,53,26.80
2009,07,30,14,54,26.70
2009,07,30,14,55,26.50
2009,07,30,14,56,26.40
2009,07,30,14,57,26.10
2009,07,30,14,58,25.90
2009,07,30,14,59,25.90
2009,07,30,15,00,25.80
2009,07,30,15,01,25.80
2009,07,30,15,02,25.80
2009,07,30,15,03,25.70
2009,07,30,15,04,25.60
2009,07,30,15,05,25.60
2009,07,30,15,06,25.60
2009,07,30,15,07,25.60
2009,07,30,15,08,25.50
2009,07,30,15,09,25.40
2009,07,30,15,10,25.40
2009,07,30,15,11,25.40
2009,07,30,15,12,25.40
2009,07,30,15,13,25.40
2009,07,30,15,14,25.30
2009,07,30,15,15,25.30
2009,07,30,15,16,25.40
2009,07,30,15,17,25.40
2009,07,30,15,18,25.50
2009,07,30,15,19,25.70
2009,07,30,15,20,25.90
2009,07,30,15,21,25.90
2009,07,30,15,22,26.00
2009,07,30,15,23,26.00
2009,07,30,15,24,26.00
2009,07,30,15,25,26.00
2009,07,30,15,26,26.00
2009,07,30,15,27,25.90
2009,07,30,15,28,25.90
2009,07,30,15,29,25.70
2009,07,30,15,30,25.70
2009,07,30,15,31,25.70
2009,07,30,15,32,25.70
2009,07,30,15,33,25.70
2009,07,30,15,34,25.80
2009,07,30,15,35,25.90
2009,07,30,15,36,25.80
2009,07,30,15,37,25.80
2009,07,30,15,38,25.80
2009,07,30,15,39,25.80
2009,07,30,15,40,25.80
2009,07,30,15,41,25.80
2009,07,30,15,42,25.80
2009,07,30,15,43,25.90
2009,07,30,15,44,25.80
2009,07,30,15,45,25.80
2009,07,30,15,46,25.80
2009,07,30,15,47,25.70
2009,07,30,15,48,25.70
2009,07,30,15,49,25.70
2009,07,30,15,50,25.80
2009,07,30,15,51,25.90
2009,07,30,15,52,25.90
2009,07,30,15,53,25.90
2009,07,30,15,54,26.00
2009,07,30,15,55,25.90
2009,07,30,15,56,25.90
2009,07,30,15,57,25.90
2009,07,30,15,58,26.00
2009,07,30,15,59,26.10
2009,07,30,16,00,26.20
2009,07,30,16,01,26.20
2009,07,30,16,02,26.20
2009,07,30,16,03,26.00
2009,07,30,16,04,25.80
2009,07,30,16,05,25.60
2009,07,30,16,06,25.50
2009,07,30,16,07,25.50
2009,07,30,16,08,25.60
2009,07,30,16,09,25.60
2009,07,30,16,10,25.60
2009,07,30,16,11,25.60
2009,07,30,16,12,25.60
2009,07,30,16,13,25.60
2009,07,30,16,14,25.50
2009,07,30,16,15,25.40
2009,07,30,16,16,25.30
2009,07,30,16,17,25.20
2009,07,30,16,18,25.10
2009,07,30,16,19,25.00
2009,07,30,16,20,25.00
2009,07,30,16,21,24.90
2009,07,30,16,22,24.90
2009,07,30,16,23,24.90
2009,07,30,16,24,24.90
2009,07,30,16,25,24.80
2009,07,30,16,26,24.80
2009,07,30,16,27,24.80
2009,07,30,16,28,24.80
2009,07,30,16,29,24.90
2009,07,30,16,30,24.90
2009,07,30,16,31,24.90
2009,07,30,16,32,25.00
2009,07,30,16,33,24.90
2009,07,30,16,34,24.90
2009,07,30,16,35,24.80
2009,07,30,16,36,24.80
2009,07,30,16,37,24.80
2009,07,30,16,38,24.70
2009,07,30,16,39,24.70
2009,07,30,16,40,24.60
2009,07,30,16,41,24.60
2009,07,30,16,42,24.60
2009,07,30,16,43,24.60
2009,07,30,16,44,24.60
2009,07,30,16,45,24.40
2009,07,30,16,46,24.30
2009,07,30,16,47,24.30
2009,07,30,16,48,24.20
2009,07,30,16,49,23.90
2009,07,30,16,50,23.70
2009,07,30,16,51,23.70
2009,07,30,16,52,23.60
2009,07,30,16,53,23.60
2009,07,30,16,54,23.60
2009,07,30,16,55,23.60
2009,07,30,16,56,23.50
2009,07,30,16,57,23.40
2009,07,30,16,58,23.30
2009,07,30,16,59,23.20
2009,07,30,17,00,22.90
2009,07,30,17,01,22.50
2009,07,30,17,02,22.20
2009,07,30,17,03,22.00
2009,07,30,17,04,21.80
2009,07,30,17,05,21.50
2009,07,30,17,06,21.30
2009,07,30,17,07,21.10
2009,07,30,17,08,21.00
2009,07,30,17,09,21.00
2009,07,30,17,10,21.00
2009,07,30,17,11,21.00
2009,07,30,17,12,21.00
2009,07,30,17,13,21.00
2009,07,30,17,14,21.10
2009,07,30,17,15,21.10
2009,07,30,17,16,21.10
2009,07,30,17,17,21.10
2009,07,30,17,18,21.10
2009,07,30,17,19,21.10